This is the latest recevied weather packets stored in our database for station/object KI4BSX. If no packets are shown the sender has not sent any weather packets the latest 10 day(s).
| Time | Temp. | Humidity | Pressure | Rain* | Wind** | Luminosity | Snow |
|---|---|---|---|---|---|---|---|
| 1778146178 | 17.22° C | 99% | 1012.9 hPa | 0 mm | - | - | - |
| 1778145874 | 17.22° C | 99% | 1013.2 hPa | 0 mm | - | - | - |
| 1778145570 | 17.22° C | 99% | 1013.2 hPa | 0 mm | - | - | - |
| 1778145267 | 17.22° C | 99% | 1013.2 hPa | 0 mm | - | - | - |
| 1778144963 | 17.22° C | 99% | 1013.2 hPa | 0 mm | - | - | - |
| 1778144659 | 17.22° C | 99% | 1013 hPa | 0 mm | - | - | - |
| 1778144356 | 17.22° C | 99% | 1013.3 hPa | 1.27 mm | - | - | - |
| 1778144053 | 17.22° C | 99% | 1013.2 hPa | 1.27 mm | - | - | - |
| 1778143750 | 17.22° C | 99% | 1013.3 hPa | 0 mm | - | - | - |
| 1778143447 | 17.22° C | 99% | 1013.4 hPa | 0 mm | - | - | - |
| 1778143144 | 17.22° C | 99% | 1013.6 hPa | 0 mm | - | - | - |
| 1778142840 | 17.22° C | 99% | 1013.4 hPa | 0 mm | - | - | - |
| 1778142536 | 17.22° C | 99% | 1013.1 hPa | 0 mm | - | - | - |
| 1778142232 | 17.22° C | 99% | 1013.3 hPa | 1.78 mm | - | - | - |
| 1778141930 | 17.22° C | 99% | 1013.6 hPa | 1.78 mm | - | - | - |
| 1778141625 | 17.22° C | 99% | 1013.9 hPa | 0 mm | - | - | - |
| 1778141323 | 17.22° C | 99% | 1013.7 hPa | 0 mm | - | - | - |
| 1778141019 | 17.22° C | 99% | 1013.8 hPa | 0 mm | - | - | - |
| 1778140714 | 17.22° C | 99% | 1013.4 hPa | 0 mm | - | - | - |
| 1778140410 | 17.22° C | 99% | 1013.7 hPa | 0 mm | - | - | - |
| 1778140107 | 17.22° C | 99% | 1013.7 hPa | 0 mm | - | - | - |
| 1778139804 | 17.22° C | 99% | 1014 hPa | 1.78 mm | - | - | - |
| 1778139501 | 17.22° C | 99% | 1013.8 hPa | 1.78 mm | - | - | - |
| 1778139198 | 17.22° C | 99% | 1013.5 hPa | 3.05 mm | - | - | - |
| 1778138895 | 17.22° C | 99% | 1013.7 hPa | 6.1 mm | - | - | - |
* Rain latest hour (hover to see other rain measurements)
** Current wind speed in m/s (hover to see current wind gust speed)